CAPE
22 3 0 0 0 0 0 0 0 0 0 0 0 0 0 0 0 0 0 0 0 0 0 0 0 0 0 0 0 0 0 0 0 0 0 0 0 0 1 1 2 2 1 1
4 4 1 2 1 0 0 0 0 0 0 0 0 0 0 0 0 0 0 0 0 0 0 0 0 0 0 0 0 0 0 0 0 0 0 0 0 0 0 1 1 2 1 1
0 0 0 0 0 6 4 0 0 0 0 0 0 0 0 0 0 0 0 0 0 0 0 0 0 0 0 0 0 0 0 0 0 0 0 0 0 0 0 0 1 1 2 2
0 0 0 0 0 0 0 0 0 0 1 0 0 0 0 0 0 0 0 0 0 0 0 0 0 0 0 0 0 0 0 0 0 0 0 0 0 0 0 0 0 0 0 1
0 0 0 0 0 0 0 0 0 0 0 4 1 0 0 0 0 0 0 0 0 0 0 0 0 0 0 0 0 0 0 0 0 0 0 0 0 0 0 0 0 0 0 0
0 0 3 0 0 0 0 8 0 10 12 1 0 0 0 0 0 0 0 0 0 0 0 0 0 0 0 0 0 0 0 0 0 0 0 0 3 6 8 7 13 9 2 0
0 0 0 0 6 14 32 10 3 4 2 0 0 0 0 0 0 0 0 0 0 0 0 0 0 0 0 0 0 0 0 0 0 0 0 0 0 0 4 6 16 21 9 13
0 1 6 0 0 0 3 5 0 0 0 0 0 0 0 0 0 0 0 0 0 0 0 0 0 0 0 0 0 0 0 0 0 0 0 0 0 0 0 0 0 6 73 60
0 0 0 0 0 0 4 12 0 0 0 0 0 0 0 0 0 0 0 0 0 0 0 0 0 0 0 0 0 0 0 0 0 0 0 0 0 0 0 0 0 0 0 0
0 0 0 0 1 4 0 0 5 11 3 0 0 0 0 0 0 0 0 0 0 0 0 0 0 0 0 0 0 0 0 0 0 0 0 0 0 0 0 0 0 0 0 0
0 0 0 0 0 0 0 6 7 2 0 0 0 0 0 0 0 0 0 0 0 0 0 0 0 0 0 0 0 0 0 0 0 0 0 0 0 0 0 0 0 0 0 0
0 0 0 0 0 0 0 0 0 0 0 0 0 0 0 0 0 0 0 0 0 0 0 0 0 0 0 0 0 0 0 0 0 0 0 0 0 0 0 0 0 0 0 0
0 0 0 0 0 0 1 0 0 0 0 0 0 0 0 0 0 0 0 0 0 0 0 0 0 0 0 0 0 0 0 0 0 0 0 0 0 0 0 0 0 0 0 0
6 6 1 0 0 0 0 0 0 0 8 0 0 0 0 0 0 0 0 0 0 0 0 0 0 0 0 0 0 0 0 0 0 0 0 0 0 0 0 0 0 0 0 0
13 3 1 0 0 0 0 0 0 14 0 0 0 0 0 0 0 0 0 0 0 0 0 0 0 0 0 0 0 0 0 0 0 0 0 0 0 0 0 0 0 0 0 0
0 2 3 0 0 0 0 0 0 0 0 4 0 0 0 0 0 0 0 0 0 0 0 0 0 0 0 0 0 0 0 0 0 0 0 0 0 0 0 0 0 0 0 0
15 3 0 0 0 0 1 0 0 0 0 0 0 0 0 0 0 0 0 0 0 0 0 0 0 0 0 0 0 0 0 0 0 0 0 0 0 0 0 0 0 0 0 0
15 5 5 0 0 0 0 0 0 0 0 0 0 0 0 0 0 0 0 0 0 0 0 0 0 0 0 0 0 0 0 0 0 0 0 0 0 0 0 0 0 0 0 0
2 8 31 11 0 0 0 0 0 0 0 0 0 0 0 0 0 0 0 0 0 0 0 0 0 0 0 0 0 0 0 0 0 0 0 0 0 0 0 0 0 0 0 0
1 0 0 0 0 0 0 0 0 0 0 0 0 0 0 0 0 0 0 0 0 0 0 0 0 0 0 0 0 0 0 0 0 0 0 0 0 0 0 0 0 0 0 0
0 0 0 0 1 0 0 0 0 0 0 0 0 0 0 0 0 0 0 0 0 0 0 0 0 0 0 0 0 0 0 0 0 0 0 0 0 0 0 0 0 0 0 0
0 0 0 5 14 2 0 0 0 0 0 0 0 0 0 0 0 0 0 0 0 0 0 0 0 0 0 0 0 0 0 0 0 0 0 0 0 0 0 0 0 0 0 1
0 0 0 11 0 0 0 0 0 0 0 0 0 0 0 0 0 0 0 0 0 0 0 0 0 0 0 0 0 0 0 0 0 0 0 0 0 0 0 0 0 0 0 1
0 0 0 4 0 0 0 0 0 0 0 0 0 0 0 0 0 0 0 0 0 0 0 0 0 0 0 0 0 0 0 0 0 0 0 0 0 0 0 0 0 0 1 0
0 0 0 0 0 0 0 0 0 0 0 0 0 0 0 0 0 0 0 0 0 0 0 0 0 0 0 0 0 0 0 0 0 0 0 0 0 0 0 0 0 0 0 0
0 0 0 0 0 0 0 0 0 0 0 0 0 0 0 0 0 0 0 0 0 0 0 0 0 0 0 0 0 0 0 0 0 0 0 0 0 0 0 0 0 0 0 0
CIN
-1 -0 -0 -0 -0 -0 -0 -0 -0 -0 -0 -0 -0 -0 -0 -0 -0 -0 -0 -0 -0 -0 -0 -0 -0 -0 -0 -0 -0 -0 -0 -0 -0 -0 -0 -0 -0 -0 -0 -0 -0 -0 -0 -0
-0 -0 -3 -4 -2 -0 -0 -0 -0 -0 -0 -0 -0 -0 -0 -0 -0 -0 -0 -0 -0 -0 -0 -0 -0 -0 -0 -0 -0 -0 -0 -0 -0 -0 -0 -0 -0 -0 -0 -0 -0 -0 -0 -0
-0 -0 -0 -0 -2 -1 -2 -0 -0 -0 -0 -0 -0 -0 -0 -0 -0 -0 -0 -0 -0 -0 -0 -0 -0 -0 -0 -0 -0 -0 -0 -0 -0 -0 -0 -0 -0 -0 -0 -0 -0 -0 -0 -0
-0 -0 -0 -0 -0 -0 -0 -0 -0 -0 -3 -0 -0 -0 -0 -0 -0 -0 -0 -0 -0 -0 -0 -0 -0 -0 -0 -0 -0 -0 -0 -0 -0 -0 -0 -0 -0 -0 -0 -0 -0 -0 -0 -0
-0 -0 -0 -0 -0 -0 -0 -1 -1 -0 -0 -1 -4 -0 -0 -0 -0 -0 -0 -0 -0 -0 -0 -0 -0 -0 -0 -0 -0 -0 -0 -0 -0 -0 -0 -0 -0 -0 -0 -0 -0 -0 -0 -0
-0 -0 -8 -0 -2 -0 -0 -7 -11 -9 -3 -1 -0 -0 -0 -0 -0 -0 -0 -0 -0 -0 -0 -0 -0 -0 -0 -0 -0 -0 -0 -0 -0 -0 -0 -0 -1 -2 -4 -8 -190 -188 -22 -0
-0 -0 -0 -0 -4 -15 -2 -2 -2 -3 -1 -0 -0 -0 -0 -0 -0 -0 -0 -0 -0 -0 -0 -0 -0 -0 -0 -0 -0 -0 -0 -0 -0 -0 -0 -0 -0 -0 -66 -97 -108 -127 -155 -176
-0 -0 -1 -2 -0 -0 -2 -2 -0 -0 -0 -0 -0 -0 -0 -0 -0 -0 -0 -0 -0 -0 -0 -0 -0 -0 -0 -0 -0 -0 -0 -0 -0 -0 -0 -0 -0 -0 -0 -0 -0 -13 -69 -88
-0 -0 -0 -0 -0 -0 -1 -0 -0 -0 -0 -0 -0 -0 -0 -0 -0 -0 -0 -0 -0 -0 -0 -0 -0 -0 -0 -0 -0 -0 -0 -0 -0 -0 -0 -0 -0 -0 -0 -0 -0 -0 -0 -0
-0 -0 -0 -0 -2 -5 -1 -0 -1 -4 -2 -1 -0 -0 -0 -0 -0 -0 -0 -0 -0 -0 -0 -0 -0 -0 -0 -0 -0 -0 -0 -0 -0 -0 -0 -0 -0 -0 -0 -0 -0 -0 -0 -0
-0 -0 -0 -0 -0 -0 -0 -2 -8 -7 -1 -0 -0 -0 -0 -0 -0 -0 -0 -0 -0 -0 -0 -0 -0 -0 -0 -0 -0 -0 -0 -0 -0 -0 -0 -0 -0 -0 -0 -0 -0 -0 -0 -0
-0 -0 -0 -0 -0 -0 -0 -0 -0 -0 -0 -0 -0 -0 -0 -0 -0 -0 -0 -0 -0 -0 -0 -0 -0 -0 -0 -0 -0 -0 -0 -0 -0 -0 -0 -0 -0 -0 -0 -0 -0 -0 -0 -0
-0 -0 -10 -0 -0 -0 -2 -0 -0 -0 -0 -0 -0 -0 -0 -0 -0 -0 -0 -0 -0 -0 -0 -0 -0 -0 -0 -0 -0 -0 -0 -0 -0 -0 -0 -0 -0 -0 -0 -0 -0 -0 -0 -0
-26 -25 -3 -0 -0 -0 -0 -0 -0 -0 -2 -0 -0 -0 -0 -0 -0 -0 -0 -0 -0 -0 -0 -0 -0 -0 -0 -0 -0 -0 -0 -0 -0 -0 -0 -0 -0 -0 -0 -0 -0 -0 -0 -0
-19 -3 -1 -0 -0 -0 -0 -0 -5 -26 -0 -0 -0 -0 -0 -0 -0 -0 -0 -0 -0 -0 -0 -0 -0 -0 -0 -0 -0 -0 -0 -0 -0 -0 -0 -0 -0 -0 -0 -0 -0 -0 -0 -0
-0 -0 -8 -0 -0 -0 -0 -0 -0 -0 -1 -36 -0 -0 -0 -0 -0 -0 -0 -0 -0 -0 -0 -0 -0 -0 -0 -0 -0 -0 -0 -0 -0 -0 -0 -0 -0 -0 -0 -0 -0 -0 -0 -0
-15 -4 -2 -0 -0 -0 -4 -0 -0 -0 -0 -0 -0 -0 -0 -0 -0 -0 -0 -0 -0 -0 -0 -0 -0 -0 -0 -0 -0 -0 -0 -0 -0 -0 -0 -0 -0 -0 -0 -0 -0 -0 -0 -0
-34 -30 -9 -0 -0 -0 -0 -0 -0 -0 -0 -0 -0 -0 -0 -0 -0 -0 -0 -0 -0 -0 -0 -0 -0 -0 -0 -0 -0 -0 -0 -0 -0 -0 -0 -0 -0 -0 -0 -0 -0 -0 -0 -0
-59 -17 -6 -52 -0 -0 -0 -0 -0 -0 -0 -0 -0 -0 -0 -0 -0 -0 -0 -0 -0 -0 -0 -0 -0 -0 -0 -0 -0 -0 -0 -0 -0 -0 -0 -0 -0 -0 -0 -0 -0 -0 -0 -0
-9 -1 -0 -0 -0 -0 -0 -0 -0 -0 -0 -0 -0 -0 -0 -0 -0 -0 -0 -0 -0 -0 -0 -0 -0 -0 -0 -0 -0 -0 -0 -0 -0 -0 -0 -0 -0 -0 -0 -0 -0 -0 -0 -0
-0 -0 -0 -1 -13 -0 -0 -0 -0 -0 -0 -0 -0 -0 -0 -0 -0 -0 -0 -0 -0 -0 -0 -0 -0 -0 -0 -0 -0 -0 -0 -0 -0 -0 -0 -0 -0 -0 -0 -0 -0 -0 -0 -0
-0 -0 -0 -9 -2 -1 -0 -0 -0 -0 -0 -0 -0 -0 -0 -0 -0 -0 -0 -0 -0 -0 -0 -0 -0 -0 -0 -0 -0 -0 -0 -0 -0 -0 -0 -0 -0 -0 -0 -0 -0 -0 -0 -0
-0 -2 -15 -17 -0 -0 -0 -0 -0 -0 -0 -0 -0 -0 -0 -0 -0 -0 -0 -0 -0 -0 -0 -0 -0 -0 -0 -0 -0 -0 -0 -0 -0 -0 -0 -0 -0 -0 -0 -0 -0 -0 -0 -0
-0 -0 -58 -102 -0 -0 -0 -0 -0 -0 -0 -0 -0 -0 -0 -0 -0 -0 -0 -0 -0 -0 -0 -0 -0 -0 -0 -0 -0 -0 -0 -0 -0 -0 -0 -0 -0 -0 -0 -0 -0 -0 -0 -0
-0 -0 -0 -0 -0 -0 -0 -0 -0 -0 -0 -0 -0 -0 -0 -0 -0 -0 -0 -0 -0 -0 -0 -0 -0 -0 -0 -0 -0 -0 -0 -0 -0 -0 -0 -0 -0 -0 -0 -0 -0 -0 -0 -0
-0 -0 -0 -0 -0 -0 -0 -0 -0 -0 -0 -0 -0 -0 -0 -0 -0 -0 -0 -0 -0 -0 -0 -0 -0 -0 -0 -0 -0 -0 -0 -0 -0 -0 -0 -0 -0 -0 -0 -0 -0 -0 -0 -0
Wind_Speed
25 32 37 31 29 28 27 33 35 33 30 35 37 39 39 39 35 37 38 38 39 39 36 37 37 37 36 34 33 34 32 29 24 23 22 22 21 20 19 19 18 18 18 19
29 38 31 27 28 30 33 36 36 33 32 36 41 47 40 38 40 37 37 37 34 33 35 34 34 34 35 36 36 34 32 29 26 24 24 24 25 23 22 22 21 20 20 21
34 29 28 28 29 33 34 35 34 37 33 34 43 51 40 31 27 26 24 29 30 31 30 30 32 33 34 35 36 35 34 32 30 27 25 25 25 26 25 25 26 25 24 24
36 34 25 30 35 30 39 30 32 36 37 43 30 51 41 36 32 32 34 29 30 28 26 28 30 31 33 34 33 34 33 32 31 28 25 25 26 27 26 27 28 28 27 27
35 32 34 34 32 29 36 27 31 32 36 41 41 46 41 24 27 32 30 26 24 23 24 27 29 30 31 32 33 32 31 31 31 28 26 26 27 27 29 29 29 29 29 28
35 27 30 32 26 26 22 26 29 30 33 50 43 40 45 38 33 25 24 21 23 24 24 25 27 28 30 31 31 32 32 31 29 28 27 28 30 31 31 31 32 32 32 30
36 36 30 27 31 27 27 28 39 42 44 51 33 38 45 29 19 27 34 27 21 22 24 24 26 28 29 30 31 30 31 31 31 29 28 28 29 30 31 32 33 34 35 35
40 43 37 29 32 32 33 32 38 47 48 46 34 48 42 27 29 26 24 20 21 21 23 24 24 25 26 28 29 30 30 31 31 30 28 28 29 29 30 33 35 35 37 37
39 42 26 28 28 26 32 40 32 38 37 44 41 42 38 33 33 30 26 22 22 20 20 21 22 24 25 27 28 29 29 30 31 31 30 30 30 31 32 34 35 36 37 38
31 38 32 28 25 28 31 25 35 35 47 52 47 47 43 28 25 23 22 20 18 20 21 21 23 24 25 26 28 28 29 30 31 32 32 32 32 32 33 34 37 37 38 39
32 35 33 26 35 33 31 34 31 31 36 46 51 50 35 35 31 26 21 19 18 19 20 22 23 24 25 27 29 30 31 32 34 35 34 34 34 34 36 37 38 39 39 40
32 34 44 40 31 32 36 38 34 41 43 42 46 55 30 30 27 22 21 17 16 17 19 22 24 25 26 28 29 31 31 33 34 35 36 37 37 38 39 40 40 41 42 41
27 37 43 42 39 33 37 36 34 35 35 44 49 52 34 32 27 21 18 15 16 18 20 23 25 27 28 29 29 31 32 34 35 36 35 36 37 40 42 43 43 44 45 45
21 35 44 54 45 35 40 37 34 35 43 47 47 46 40 31 26 23 20 18 18 19 23 24 26 28 29 30 30 30 33 34 35 36 37 38 39 41 42 42 42 43 45 46
28 40 40 45 40 36 38 40 37 39 42 45 47 44 42 33 28 23 20 20 22 22 24 25 27 28 29 29 31 31 32 33 34 35 36 37 39 40 40 41 42 42 42 44
26 39 35 43 39 40 42 39 37 37 39 42 42 45 32 32 27 28 27 25 23 24 24 25 26 28 30 31 31 33 33 34 34 35 36 37 37 38 39 40 42 43 43 43
31 37 36 48 39 38 46 44 43 38 37 37 43 40 32 34 30 27 24 22 23 22 24 25 26 28 29 30 31 33 33 33 33 34 35 36 37 38 39 40 41 43 44 45
32 35 36 43 34 53 41 34 34 36 37 34 36 34 34 34 31 27 24 23 24 23 24 25 27 27 28 29 31 32 32 32 33 34 35 36 38 39 40 42 43 45 46 47
31 30 39 40 48 39 34 34 32 31 39 31 31 30 31 25 24 28 22 20 20 21 21 23 24 25 26 29 31 31 31 31 32 34 36 37 38 40 42 44 46 46 48 50
33 34 36 35 42 45 37 32 25 24 42 28 24 25 23 21 28 28 18 17 18 18 21 21 23 24 26 29 30 30 31 32 34 36 37 38 39 41 43 45 47 48 49 51
36 38 44 45 38 37 33 22 15 29 36 24 18 18 17 23 27 19 13 16 17 18 18 20 22 24 27 29 29 30 31 33 35 36 37 39 40 42 44 46 47 50 52 53
41 41 44 42 47 49 27 21 29 29 27 24 20 19 20 21 18 13 12 14 15 17 19 21 23 24 26 28 28 30 31 33 35 37 38 40 42 43 45 48 49 51 52 54
47 42 43 38 41 36 32 31 28 29 30 26 24 24 19 18 17 13 11 11 14 17 20 22 23 24 26 28 28 30 33 35 37 39 41 43 44 45 47 49 51 52 52 54
38 36 44 44 43 41 36 36 31 29 27 25 21 19 18 17 14 14 13 15 17 18 20 22 23 24 26 28 29 31 34 36 39 41 43 44 45 47 47 48 49 51 52 54
37 32 40 44 42 37 36 32 30 26 24 20 18 18 16 15 16 16 17 17 18 19 20 21 23 24 27 29 31 33 35 38 41 42 44 45 46 48 49 49 49 50 49 51
31 38 37 39 38 34 35 26 24 22 21 19 16 16 17 16 16 15 18 18 18 19 20 21 23 25 28 30 32 35 37 39 42 44 46 47 48 49 50 52 52 47 47 48
Wind_Direction
257 255 254 258 261 271 273 273 274 280 285 286 285 286 288 289 292 294 295 297 299 301 306 310 312 312 312 313 312 309 306 304 303 300 296 294 289 287 283 282 279 278 282 283
256 255 259 265 264 266 269 271 274 282 286 287 287 285 290 291 290 293 295 296 300 307 310 314 318 319 317 314 313 312 310 307 304 301 300 298 302 294 288 287 285 284 281 281
253 266 258 261 263 262 268 270 275 279 288 289 289 285 291 296 297 299 301 304 306 310 313 318 321 323 323 322 320 316 312 308 306 305 302 301 300 300 297 289 288 287 287 287
259 258 264 260 260 263 267 274 278 280 283 281 292 282 286 292 293 296 297 305 308 313 320 323 324 328 329 328 329 327 324 318 312 307 303 300 299 298 298 296 293 291 289 288
258 260 255 261 266 263 271 276 278 280 281 282 281 285 292 299 292 296 300 303 311 317 322 324 328 331 333 333 334 336 334 331 326 320 311 306 304 303 303 302 299 295 294 291
259 270 262 262 268 264 272 278 282 283 283 276 277 279 285 290 291 293 304 308 312 314 321 326 329 332 334 336 338 340 341 342 340 334 329 322 312 308 305 304 302 300 298 297
260 261 268 268 261 266 265 268 275 273 273 276 286 277 280 296 292 299 302 304 310 315 317 324 326 329 333 336 339 341 342 343 344 343 340 334 328 323 316 311 306 303 300 298
256 260 256 260 262 265 258 259 268 272 273 278 282 277 283 283 291 304 311 309 310 314 318 321 328 332 334 336 338 340 342 343 343 343 343 340 336 331 325 320 314 310 304 301
257 262 272 265 262 257 266 258 266 278 281 280 278 283 288 289 289 295 298 299 304 312 320 324 331 333 336 337 337 338 337 338 338 338 338 338 335 331 326 323 320 317 314 311
265 266 268 261 266 263 263 266 265 268 273 274 279 280 280 292 302 301 293 295 303 309 316 324 329 333 334 335 335 335 336 334 334 333 331 331 331 329 326 324 321 321 318 317
259 265 270 265 258 256 261 261 269 272 271 275 278 279 287 287 291 291 287 294 298 305 313 321 326 330 331 331 332 331 331 328 327 327 327 326 325 325 324 322 321 321 319 320
251 266 262 262 274 267 259 262 259 267 272 273 277 277 293 298 297 290 287 290 298 307 314 319 323 325 327 327 329 329 330 330 330 328 326 322 319 320 320 320 319 317 318 319
245 259 262 266 268 270 263 262 261 265 276 271 273 280 293 291 290 287 282 286 296 304 311 316 318 320 322 324 328 328 328 328 328 328 328 328 326 324 319 315 315 313 312 313
245 259 259 259 268 266 265 263 261 260 267 271 272 279 283 286 284 283 281 284 292 299 305 309 313 317 320 323 326 329 329 330 329 328 327 325 325 323 320 322 320 318 315 313
254 262 262 264 268 270 268 266 263 260 263 268 275 275 278 280 278 275 277 283 289 293 299 305 311 316 320 323 326 330 331 332 332 330 329 328 326 325 323 322 323 323 323 322
255 265 265 266 266 268 270 269 268 264 264 269 271 277 288 285 280 275 275 277 280 288 297 305 310 315 318 320 324 326 328 331 332 332 331 330 330 328 327 327 327 327 326 327
257 261 264 266 268 269 267 264 267 270 266 266 268 271 281 280 278 275 272 272 279 288 297 303 309 313 316 319 322 324 326 330 331 332 333 331 330 330 329 329 328 328 328 328
258 260 263 267 268 264 271 271 268 267 270 268 270 271 278 277 280 279 275 273 280 289 296 303 308 312 315 319 322 323 326 328 329 330 332 332 329 328 327 328 328 328 328 328
259 261 265 267 263 274 275 269 272 274 277 269 265 269 279 282 283 280 276 278 281 290 298 305 310 313 317 320 322 323 325 328 329 330 330 330 330 328 327 327 326 327 325 325
264 265 262 270 270 268 270 275 276 284 278 278 263 266 269 277 275 277 267 275 283 292 301 305 310 315 318 321 323 324 325 326 327 326 326 328 328 327 327 326 327 328 327 326
265 263 263 269 270 274 278 287 271 269 286 294 269 262 264 274 284 288 270 278 288 295 301 308 313 315 319 322 323 323 325 325 325 326 327 329 329 329 329 328 328 326 326 326
263 264 263 267 269 271 280 272 263 277 291 292 286 277 280 286 290 288 284 283 288 296 304 310 313 317 321 322 323 323 323 324 325 326 327 327 328 328 328 327 327 327 326 325
262 259 264 267 272 278 271 279 281 285 283 283 284 281 281 283 284 283 284 290 295 301 307 312 315 317 320 322 323 321 322 323 324 325 325 326 326 327 327 326 326 326 326 325
267 266 262 265 270 273 275 275 281 283 283 286 287 282 285 279 278 282 286 293 298 304 308 313 316 317 318 321 322 322 322 323 323 323 324 325 325 325 326 327 327 326 325 325
270 266 265 268 270 275 278 277 275 282 286 286 288 286 282 281 282 283 287 294 299 303 310 313 315 317 318 320 321 322 323 323 323 323 324 324 325 325 325 326 326 325 325 325
271 265 264 271 275 277 282 272 275 281 280 282 281 284 287 285 280 287 292 297 300 304 310 314 316 317 318 320 321 323 324 324 323 323 323 324 324 324 324 324 324 327 326 327